Weather History for Scottsbluff, NE

Change the Weather History Date:

Saturday, March 23, 2013

  Actual Average Record
Temperature  
Mean Temperature 21 °F 40 °F  
Max Temperature 34 °F 55 °F 85 °F (1925)
Min Temperature 8 °F 26 °F 0 °F (1965)
Degree Days  
Heating Degree Days 44 25  
Month to date heating degree days 607 640  
Since 1 July heating degree days 5128 5552  
Cooling Degree Days 0 0  
Month to date cooling degree days 0 0  
Year to date cooling degree days 0 0  
Moisture  
Dew Point 11 °F    
Average Humidity 57    
Maximum Humidity 81    
Minimum Humidity 32    
Precipitation  
Precipitation 0.02 in 0.03 in 0.58 in (2009)
Month to date precipitation 0.16 0.68  
Year to date precipitation 0.70 1.69  
Snow  
Snow 0.50 in 0.30 in 4.40 in (1990)
Month to date snowfall 1.9 5.8  
Since 1 July snowfall 22.9 34.2  
Snow Depth 1.00 in    
Sea Level Pressure  
Sea Level Pressure 30.17 in    
Wind  
Wind Speed 13 mph (North)    
Max Wind Speed 28 mph    
Max Gust Speed 33 mph    
Visibility 10 miles    
Events Snow    
T = Trace of Precipitation, MM = Missing Value Source: NWS Daily Summary

Daily Weather History Graph

Daily Weather History Graph

Search for Another Location

Airport:

Trip Planner

Search our weather history database for the weather conditions in past years. The results will help you decide how hot, cold, wet, or windy it might be!

Date:

Astronomy

Mar. 23, 2013 Rise Set
Actual Time 6:52 AM MDT 7:10 PM MDT
Civil Twilight 6:24 AM MDT 7:38 PM MDT
Nautical Twilight 5:51 AM MDT 8:10 PM MDT
Astronomical Twilight 5:18 AM MDT 8:44 PM MDT
Moon 3:36 PM MDT (3/23) 4:32 AM MDT (3/23)
Length of Visible Light 13h 13m
Length of Day
12h 18m
Waxing Gibbous, 85% of the Moon is Illuminated
Mar 23
Waxing Gibbous
Mar 27
Full
Apr 2
Last Quarter
Apr 10
New
Apr 18
First Quarter

Hourly Weather History & Observations

Time (MDT) Temp. Windchill Dew Point Humidity Pressure Visibility Wind Dir Wind Speed Gust Speed Precip Events Conditions
12:53 AM 28.9 °F 17.3 °F 21.0 °F 72% 30.00 in 10.0 mi North 16.1 mph - N/A   Overcast
1:53 AM 26.1 °F 10.7 °F 19.0 °F 75% 30.01 in 10.0 mi North 25.3 mph 29.9 mph N/A   Overcast
2:53 AM 24.1 °F 8.0 °F 18.0 °F 77% 30.01 in 10.0 mi NNE 25.3 mph 31.1 mph N/A   Overcast
3:53 AM 23.0 °F 7.2 °F 17.1 °F 78% 30.03 in 9.0 mi NNE 23.0 mph 33.4 mph N/A   Overcast
4:53 AM 21.9 °F 7.3 °F 16.0 °F 78% 30.05 in 10.0 mi North 18.4 mph 28.8 mph N/A   Overcast
5:36 AM 21.2 °F 13.6 °F 15.8 °F 80% 30.04 in 10.0 mi Variable 5.8 mph 19.6 mph N/A   Overcast
5:53 AM 19.9 °F 8.6 °F 14.0 °F 78% 30.12 in 10.0 mi North 10.4 mph 18.4 mph N/A   Overcast
6:10 AM 19.4 °F 6.0 °F 12.2 °F 74% 30.05 in 10.0 mi North 13.8 mph 19.6 mph N/A   Overcast
6:53 AM 19.0 °F 5.6 °F 10.9 °F 71% 30.15 in 10.0 mi North 13.8 mph 26.5 mph N/A   Overcast
7:07 AM 19.4 °F 9.5 °F 10.4 °F 68% 30.07 in 10.0 mi North 8.1 mph - N/A   Overcast
7:46 AM 19.4 °F 5.5 °F 8.6 °F 63% 30.08 in 9.0 mi North 15.0 mph - N/A   Overcast
7:53 AM 19.0 °F 6.1 °F 10.0 °F 68% 30.19 in 9.0 mi North 12.7 mph - N/A   Overcast
8:53 AM 19.0 °F 5.6 °F 10.0 °F 68% 30.22 in 8.0 mi North 13.8 mph - 0.00 in Snow Light Snow
9:26 AM 19.4 °F 5.5 °F 10.4 °F 68% 30.11 in 5.0 mi North 15.0 mph - 0.00 in Snow Light Snow
9:53 AM 19.9 °F 5.7 °F 12.0 °F 71% 30.22 in 3.0 mi North 16.1 mph - 0.00 in Snow Light Snow
10:35 AM 21.2 °F 7.8 °F 10.4 °F 63% 30.11 in 10.0 mi NNW 15.0 mph - 0.00 in   Overcast
10:53 AM 21.0 °F 9.3 °F 10.9 °F 65% 30.22 in 10.0 mi North 11.5 mph - 0.00 in   Overcast
11:53 AM 23.0 °F 11.1 °F 10.9 °F 60% 30.22 in 10.0 mi NNW 12.7 mph - N/A   Overcast
12:53 PM 26.1 °F 12.7 °F 12.0 °F 55% 30.20 in 10.0 mi NNW 18.4 mph 24.2 mph N/A   Mostly Cloudy
1:53 PM 28.9 °F 18.6 °F 12.9 °F 51% 30.19 in 10.0 mi North 12.7 mph 23.0 mph N/A   Scattered Clouds
2:53 PM 30.9 °F 19.4 °F 10.9 °F 43% 30.18 in 10.0 mi North 17.3 mph 26.5 mph N/A   Partly Cloudy
3:53 PM 33.1 °F 21.5 °F 7.0 °F 34% 30.18 in 10.0 mi North 19.6 mph 27.6 mph N/A   Scattered Clouds
4:53 PM 32.0 °F 21.2 °F 6.1 °F 34% 30.20 in 10.0 mi North 16.1 mph 28.8 mph N/A   Clear
5:53 PM 30.9 °F 18.4 °F 7.0 °F 37% 30.22 in 10.0 mi North 20.7 mph - N/A   Clear
6:53 PM 27.0 °F 16.1 °F 8.1 °F 45% 30.25 in 10.0 mi North 12.7 mph - N/A   Clear
7:53 PM 23.0 °F 13.9 °F 8.1 °F 53% 30.27 in 10.0 mi North 8.1 mph - N/A   Clear
8:53 PM 18.0 °F 9.8 °F 7.0 °F 62% 30.31 in 10.0 mi North 5.8 mph - N/A   Clear
9:53 PM 17.1 °F 8.7 °F 7.0 °F 65% 30.32 in 10.0 mi North 5.8 mph - N/A   Clear
10:53 PM 12.0 °F 1.5 °F 6.1 °F 77% 30.34 in 10.0 mi North 6.9 mph - N/A   Clear
11:53 PM 12.0 °F 4.1 °F 7.0 °F 80% 30.33 in 10.0 mi NW 4.6 mph - N/A   Clear